Location: Chamerau
(49.1969°N, 12.7525°E)
Time: 08:54:42
(UTC+00:00)

ARIANE 5 R/B - Pass Details

Date: 18 September 2020
Orbit: 620 x 657 km, 98.2° (Epoch: 23 October)

Event Time Altitude Azimuth Distance (km) Brightness Sun altitude
Exits shadow 19:37:43 52° 52° (NE) 784 2.9 -22.9°
Drops below altitude 10° 19:41:36 10° 354° (N) 2,003 5.6 -23.5°
Sets 19:43:50 0° 350° (N) 2,912 6.6 -23.8°
